INTELSAT 8 (IS-8)

Last updated on Sat Jan 05 2019 02:57:31 GMT+0000 (Coordinated Universal Time)

1 25522U 98065A 19003.76187528 -.00000198 00000-0 00000-0 0 9990 2 25522 2.2963 85.8769 0296007 232.6088 22.2111 0.95186562 18905
UTC large
Height (km)
Speed (km/s)
/
Latitude / Longitude
Inclination (degrees)
Orbital Period (minutes)
Azimuth
Elevation
Range (km)
Doppler Factor

Next 0 passes for location: London (51.5072 / 0.1276)

Sorry there are no passes over London.